Location: *
(49.6619°S, 177.4603°W)
Time: 05:28:29
(UTC+00:00)

SJ 16-02 - Pass Details

Date: 31 January 2023
Orbit: 601 x 611 km, 75.0° (Epoch: 01 April)

Event Time Altitude Azimuth Distance (km) Brightness Sun altitude
Rises 08:34:40 0° 216° (SW) 2,923 6.7 -8.7°
Reaches altitude 10° 08:37:38 10° 237° (WSW) 2,009 5.6 -9.0°
Maximum altitude 08:40:25 16° 275° (W) 1,618 4.1 -9.4°
Drops below altitude 10° 08:43:11 10° 314° (NW) 1,992 4.0 -9.7°
Sets 08:46:07 0° 335° (NNW) 2,886 4.6 -10.1°
